#timestamp,LO_Frequency,Hit,StdDev 
1509256815.7,286047000.3,N
1509256835.5,286046998.0,N
1509256855.4,286046992.4,N
1509256875.2,286046993.0,N
1509256895.0,286046994.7,N
1509256896.0,286046994.7,N
1509256915.8,286046993.7,N
1509256935.6,286046997.3,N
1509256955.5,286046995.3,N
1509256975.3,286046991.7,N
1509256995.1,286046994.0,N
1509257015.9,286046999.0,N
1509257035.7,286047003.3,N
1509257055.5,286047006.6,N
1509257075.4,286047006.1,N
1509257095.2,286047010.6,N
1509257115.0,286047012.0,N
1509257115.9,286047012.0,N
1509257135.8,286047014.5,N
1509257155.6,286047016.4,N
1509257175.4,286047015.7,N
1509257195.3,286047016.2,N
1509257215.1,286047017.1,N
1509257235.8,286047016.4,N
1509257255.7,286047017.7,N
1509257275.5,286047020.6,N
1509257295.3,286047022.0,N
1509257315.2,286047023.5,N
1509257335.9,286047023.5,N
1509257355.7,286047020.4,N
1509257375.6,286047020.8,N
1509257395.4,286047019.0,N
1509257415.2,286047018.4,N
1509257435.1,286047018.1,N
1509257436.0,286047018.1,N
1509257455.8,286047013.5,N
1509257475.6,286047014.8,N
1509257495.5,286047014.3,N
1509257515.3,286047013.1,N
1509257535.1,286047010.1,N
1509257555.9,286047010.1,N
1509257575.7,286047007.5,N
1509257595.6,286047003.3,N
1509257615.4,286047005.5,N
1509257635.2,286047003.1,N
1509257655.1,286047003.6,N
1509257656.0,286047003.6,N
1509257675.8,286047002.2,N
1509257695.6,286047007.6,N
1509257715.5,286047005.3,N
1509257735.3,286047005.7,N
1509257755.1,286047004.2,N
1509257775.9,286047002.0,N
1509257795.7,286047002.6,N
1509257815.5,286047003.8,N
1509257835.4,286047004.8,N
1509257855.2,286047006.1,N
1509257875.0,286047007.8,N
1509257875.9,286047007.8,N
1509257895.8,286047008.7,N
1509257915.6,286047007.7,N
1509257935.4,286047006.6,N
1509257955.3,286047010.5,N
1509257975.1,286047011.5,N
1509257995.8,286047010.4,N
1509258015.7,286047006.4,N
1509258035.5,286047004.5,N
1509258055.3,286046999.7,N
1509258075.2,286047000.4,N
1509258095.9,286046997.5,N
1509258115.7,286046992.9,N
1509258135.6,286046992.8,N
1509258155.4,286046989.1,N
1509258175.2,286046987.6,N
1509258195.1,286046983.9,N
1509258196.0,286046983.9,N
1509258215.8,286046983.3,N
1509258235.6,286046986.5,N
1509258255.5,286046989.4,N
1509258275.3,286046987.4,N
1509258295.1,286046991.2,N
1509258315.9,286046988.6,N
1509258335.7,286046986.6,N
1509258355.5,286046983.9,N
1509258375.4,286046980.8,N
1509258395.2,286046982.6,N
1509258415.0,286046986.3,N
1509258416.0,286046986.3,N
1509258435.8,286046983.7,N
1509258455.6,286046981.1,N
1509258475.5,286046980.6,N
1509258495.3,286046978.5,N
1509258515.1,286046975.7,N
1509258535.9,286046981.0,N
1509258555.7,286046981.8,N
1509258575.5,286046980.5,N
1509258595.4,286046987.2,N
1509258615.2,286046988.1,N
1509258635.0,286046987.4,N
1509258635.9,286046987.4,N
1509258655.8,286046986.2,Y
1509258675.6,286047005.8,P
1509258695.4,286047005.5,N
1509258715.3,286047002.8,N
1509258735.1,286046998.6,N
1509258755.8,286046999.8,N
1509258775.7,286047000.2,N
1509258795.5,286047000.2,N
1509258815.3,286047001.8,N
1509258835.2,286047005.2,N
1509258855.0,286046999.8,N
1509258855.9,286046999.8,N
1509258875.7,286047004.4,N
1509258895.6,286047000.9,N
1509258915.4,286047007.4,N
1509258935.2,286047011.5,N
1509258955.1,286047013.5,N
1509258956.0,286047013.5,N
1509258975.8,286047012.4,N
1509258995.7,286047009.4,N
1509259015.5,286047012.8,N
1509259035.3,286047014.4,N
1509259055.2,286047023.6,Y
1509259075.0,286047016.5,P
1509259075.9,286047016.5,N
1509259095.7,286047016.1,N
1509259115.6,286047016.0,Y
1509259135.4,286047007.5,P
1509259155.3,286047010.2,P
1509259175.1,286047014.4,P
1509259176.0,286047014.4,Y
1509259195.8,286047003.1,P
1509259215.7,286047004.7,N
1509259235.5,286047003.7,N
1509259255.3,286047002.0,N
1509259275.2,286047008.7,N
1509259295.9,286047007.1,N
1509259315.7,286047004.6,N
1509259335.6,286047005.4,N
1509259355.4,286047003.8,N
1509259375.2,286047003.5,N
1509259395.1,286047003.7,N
1509259396.0,286047003.7,N
1509259415.8,286047001.7,N
1509259435.6,286047003.6,N
1509259455.5,286046999.3,N
1509259475.3,286047003.9,N
1509259495.1,286047007.1,N
1509259515.9,286047006.5,N
1509259535.7,286047005.8,N
1509259555.5,286047003.8,N
1509259575.4,286047001.4,N
1509259595.2,286047001.0,N
1509259615.0,286047004.4,N
1509259616.0,286047004.4,N
1509259635.8,286046998.6,N
1509259655.6,286047001.2,N
1509259675.5,286047000.8,N
1509259695.3,286046998.6,N
1509259715.1,286046999.5,N
1509259735.9,286046998.9,N
1509259755.7,286047000.7,N
1509259775.5,286047000.6,N
1509259795.4,286047003.6,N
1509259815.2,286047003.5,N
1509259835.0,286047005.1,N
1509259835.9,286047005.1,N
1509259855.8,286047003.6,N
1509259875.6,286047003.7,N
1509259895.4,286047000.6,N
1509259915.3,286047000.6,N
1509259935.1,286046998.8,N
1509259936.0,286046998.8,N
1509259955.8,286047000.0,N
1509259975.7,286046999.9,N
1509259995.5,286046997.9,N
1509260015.3,286046990.1,Y
1509260035.2,286046988.0,P
1509260055.9,286046983.7,N
1509260075.7,286046988.1,N
1509260095.6,286046984.9,N
1509260115.4,286046986.7,N
1509260135.2,286046987.2,N
1509260155.1,286046989.9,N
1509260156.0,286046989.9,N
1509260175.8,286046994.4,N
1509260195.6,286046995.8,N
1509260215.5,286046995.5,N
1509260235.3,286046995.1,N
1509260255.1,286046995.4,N
1509260275.9,286046992.6,N
1509260295.7,286046987.7,N
1509260315.5,286046984.1,Y
1509260335.4,286046997.9,P
1509260355.2,286047001.5,N
1509260375.0,286047008.2,N
1509260375.9,286047008.2,N
1509260395.8,286047012.1,N
